TimeCST,TemperatureF,Dew PointF,Humidity,Sea Level PressureIn,VisibilityMPH,Wind Direction,Wind SpeedMPH,Gust SpeedMPH,PrecipitationIn,Events,Conditions,WindDirDegrees,DateUTC
12:53 AM,30.0,23.0,75,30.31,10.0,Calm,Calm,-,N/A,,Clear,0,2013-02-18 06:53:00
1:53 AM,28.9,24.1,82,30.30,10.0,Calm,Calm,-,N/A,,Clear,0,2013-02-18 07:53:00
2:53 AM,28.9,24.1,82,30.30,10.0,Calm,Calm,-,N/A,,Clear,0,2013-02-18 08:53:00
3:53 AM,28.0,23.0,81,30.31,10.0,Calm,Calm,-,N/A,,Clear,0,2013-02-18 09:53:00
4:53 AM,28.9,21.9,75,30.32,10.0,Calm,Calm,-,N/A,,Clear,0,2013-02-18 10:53:00
5:53 AM,28.0,21.9,78,30.33,10.0,Calm,Calm,-,N/A,,Clear,0,2013-02-18 11:53:00
6:53 AM,28.9,23.0,78,30.34,10.0,Calm,Calm,-,N/A,,Clear,0,2013-02-18 12:53:00
7:53 AM,36.0,23.0,59,30.36,10.0,NE,6.9,-,N/A,,Clear,50,2013-02-18 13:53:00
8:53 AM,43.0,26.1,51,30.36,9.0,NE,3.5,-,N/A,,Clear,40,2013-02-18 14:53:00
9:53 AM,52.0,28.9,41,30.35,10.0,South,9.2,-,N/A,,Clear,180,2013-02-18 15:53:00
10:53 AM,55.0,27.0,34,30.33,10.0,SSW,12.7,-,N/A,,Clear,210,2013-02-18 16:53:00
11:53 AM,57.0,27.0,32,30.29,10.0,SSW,8.1,-,N/A,,Clear,200,2013-02-18 17:53:00
12:53 PM,59.0,28.0,31,30.25,10.0,SSE,10.4,-,N/A,,Clear,160,2013-02-18 18:53:00
1:53 PM,60.1,28.0,30,30.22,10.0,SSW,12.7,-,N/A,,Clear,210,2013-02-18 19:53:00
2:53 PM,61.0,26.1,26,30.18,10.0,SE,17.3,26.5,N/A,,Clear,140,2013-02-18 20:53:00
3:53 PM,59.0,26.1,28,30.17,10.0,South,10.4,19.6,N/A,,Partly Cloudy,170,2013-02-18 21:53:00
4:53 PM,57.0,27.0,32,30.15,10.0,SSE,9.2,16.1,N/A,,Clear,150,2013-02-18 22:53:00
5:53 PM,55.9,27.0,33,30.13,10.0,ESE,9.2,16.1,N/A,,Mostly Cloudy,120,2013-02-18 23:53:00
7:53 PM,54.0,28.0,37,30.13,10.0,Variable,3.5,-,N/A,,Overcast,0,2013-02-19 01:53:00
8:53 PM,53.1,27.0,37,30.13,10.0,South,8.1,19.6,N/A,,Overcast,170,2013-02-19 02:53:00
9:53 PM,53.1,24.1,32,30.09,10.0,South,11.5,24.2,N/A,,Overcast,170,2013-02-19 03:53:00
10:53 PM,53.1,27.0,37,30.06,10.0,South,9.2,17.3,N/A,,Overcast,190,2013-02-19 04:53:00
11:53 PM,53.1,23.0,31,30.03,10.0,SE,12.7,17.3,N/A,,Overcast,140,2013-02-19 05:53:00